#Datum;Uhrzeit;WR;Pac;DaySum;Status;WR;Pac;DaySum;Status;Pdc1;Udc;Temp;WR;Pac;DaySum;Status;Pdc1;Udc;Temp;WR;Pac;DaySum;Status;Pdc1;Udc;Temp;WR;Pac;DaySum;Status;Pdc1;Pdc2;Udc1;Udc2;Temp;WR;Pac;DaySum;Status;Pdc1;Pdc2;Udc1;Udc2;Temp;WR;Pac;DaySum;Status;Pdc1;Udc;Temp;WR;Pac;DaySum;Status;Pdc1;Udc;Temp;WR;Pac;DaySum;Status;Pdc1;Udc;Temp
27.01.19;23:55:00;1;226;13953;0;2;0;1827;0;0;0;0;3;0;3960;0;0;0;0;4;0;2510;0;0;0;0;5;0;628;0;0;0;0;0;0;6;0;278;0;0;0;0;0;0;7;0;9040;0;0;0;0;8;0;9656;0;0;0;0;9;0;4853;0;0;0;0
27.01.19;23:50:00;1;226;13934;0;2;0;1827;0;0;0;0;3;0;3960;0;0;0;0;4;0;2510;0;0;0;0;5;0;628;0;0;0;0;0;0;6;0;278;0;0;0;0;0;0;7;0;9040;0;0;0;0;8;0;9656;0;0;0;0;9;0;4853;0;0;0;0
27.01.19;23:45:00;1;643;13915;0;2;0;1827;0;0;0;0;3;0;3960;0;0;0;0;4;0;2510;0;0;0;0;5;0;628;0;0;0;0;0;0;6;0;278;0;0;0;0;0;0;7;0;9040;0;0;0;0;8;0;9656;0;0;0;0;9;0;4853;0;0;0;0
27.01.19;23:40:00;1;227;13872;0;2;0;1827;0;0;0;0;3;0;3960;0;0;0;0;4;0;2510;0;0;0;0;5;0;628;0;0;0;0;0;0;6;0;278;0;0;0;0;0;0;7;0;9040;0;0;0;0;8;0;9656;0;0;0;0;9;0;4853;0;0;0;0
27.01.19;23:35:00;1;286;13853;0;2;0;1827;0;0;0;0;3;0;3960;0;0;0;0;4;0;2510;0;0;0;0;5;0;628;0;0;0;0;0;0;6;0;278;0;0;0;0;0;0;7;0;9040;0;0;0;0;8;0;9656;0;0;0;0;9;0;4853;0;0;0;0
27.01.19;23:30:00;1;541;13828;0;2;0;1827;0;0;0;0;3;0;3960;0;0;0;0;4;0;2510;0;0;0;0;5;0;628;0;0;0;0;0;0;6;0;278;0;0;0;0;0;0;7;0;9040;0;0;0;0;8;0;9656;0;0;0;0;9;0;4853;0;0;0;0
27.01.19;23:25:00;1;322;13776;0;2;0;1827;0;0;0;0;3;0;3960;0;0;0;0;4;0;2510;0;0;0;0;5;0;628;0;0;0;0;0;0;6;0;278;0;0;0;0;0;0;7;0;9040;0;0;0;0;8;0;9656;0;0;0;0;9;0;4853;0;0;0;0
27.01.19;23:20:00;1;291;13749;0;2;0;1827;0;0;0;0;3;0;3960;0;0;0;0;4;0;2510;0;0;0;0;5;0;628;0;0;0;0;0;0;6;0;278;0;0;0;0;0;0;7;0;9040;0;0;0;0;8;0;9656;0;0;0;0;9;0;4853;0;0;0;0
27.01.19;23:15:00;1;501;13725;0;2;0;1827;0;0;0;0;3;0;3960;0;0;0;0;4;0;2510;0;0;0;0;5;0;628;0;0;0;0;0;0;6;0;278;0;0;0;0;0;0;7;0;9040;0;0;0;0;8;0;9656;0;0;0;0;9;0;4853;0;0;0;0
27.01.19;23:10:00;1;290;13676;0;2;0;1827;0;0;0;0;3;0;3960;0;0;0;0;4;0;2510;0;0;0;0;5;0;628;0;0;0;0;0;0;6;0;278;0;0;0;0;0;0;7;0;9040;0;0;0;0;8;0;9656;0;0;0;0;9;0;4853;0;0;0;0
27.01.19;23:07:00;1;290;13666;0;2;0;1827;0;0;0;0;3;0;3960;0;0;0;0;4;0;2510;0;0;0;0;5;0;628;0;0;0;0;0;0;6;0;278;0;0;0;0;0;0;7;0;9040;0;0;0;0;8;0;9656;0;0;0;0;9;0;4853;0;0;0;0
27.01.19;23:00:00;1;694;13628;0;2;0;1827;0;0;0;0;3;0;3960;0;0;0;0;4;0;2510;0;0;0;0;5;0;628;0;0;0;0;0;0;6;0;278;0;0;0;0;0;0;7;0;9040;0;0;0;0;8;0;9656;0;0;0;0;9;0;4853;0;0;0;0
27.01.19;22:55:00;1;221;13581;0;2;0;1827;0;0;0;0;3;0;3960;0;0;0;0;4;0;2510;0;0;0;0;5;0;628;2;0;0;0;0;0;6;0;278;2;0;0;0;0;0;7;0;9040;0;0;0;0;8;0;9656;0;0;0;0;9;0;4853;0;0;0;0
27.01.19;22:50:00;1;231;13562;0;2;0;1827;0;0;0;0;3;0;3960;0;0;0;0;4;0;2510;0;0;0;0;5;0;628;2;0;0;0;0;0;6;0;278;2;0;0;0;0;0;7;0;9040;0;0;0;0;8;0;9656;0;0;0;0;9;0;4853;0;0;0;0
27.01.19;22:45:00;1;746;13542;0;2;0;1827;0;0;0;0;3;0;3960;0;0;0;0;4;0;2510;0;0;0;0;5;0;628;2;0;0;0;0;0;6;0;278;2;0;0;0;0;0;7;0;9040;0;0;0;0;8;0;9656;0;0;0;0;9;0;4853;0;0;0;0
27.01.19;22:40:00;1;278;13496;0;2;0;1827;0;0;0;0;3;0;3960;0;0;0;0;4;0;2510;0;0;0;0;5;0;628;2;0;0;0;0;0;6;0;278;2;0;0;0;0;0;7;0;9040;0;0;0;0;8;0;9656;0;0;0;0;9;0;4853;0;0;0;0
27.01.19;22:35:00;1;320;13473;0;2;0;1827;0;0;0;0;3;0;3960;0;0;0;0;4;0;2510;0;0;0;0;5;0;628;2;0;0;0;0;0;6;0;278;2;0;0;0;0;0;7;0;9040;0;0;0;0;8;0;9656;0;0;0;0;9;0;4853;0;0;0;0
27.01.19;22:30:00;1;757;13447;0;2;0;1827;0;0;0;0;3;0;3960;0;0;0;0;4;0;2510;0;0;0;0;5;0;628;2;0;0;0;0;0;6;0;278;2;0;0;0;0;0;7;0;9040;0;0;0;0;8;0;9656;0;0;0;0;9;0;4853;0;0;0;0
27.01.19;22:25:00;1;432;13395;0;2;0;1827;0;0;0;0;3;0;3960;0;0;0;0;4;0;2510;0;0;0;0;5;0;628;2;0;0;0;0;0;6;0;278;2;0;0;0;0;0;7;0;9040;0;0;0;0;8;0;9656;0;0;0;0;9;0;4853;0;0;0;0
27.01.19;22:20:00;1;380;13359;0;2;0;1827;0;0;0;0;3;0;3960;0;0;0;0;4;0;2510;0;0;0;0;5;0;628;2;0;0;0;0;0;6;0;278;2;0;0;0;0;0;7;0;9040;0;0;0;0;8;0;9656;0;0;0;0;9;0;4853;0;0;0;0
27.01.19;22:15:00;1;582;13327;0;2;0;1827;0;0;0;0;3;0;3960;0;0;0;0;4;0;2510;0;0;0;0;5;0;628;2;0;0;0;0;0;6;0;278;2;0;0;0;0;0;7;0;9040;0;0;0;0;8;0;9656;0;0;0;0;9;0;4853;0;0;0;0
27.01.19;22:10:00;1;373;13270;0;2;0;1827;0;0;0;0;3;0;3960;0;0;0;0;4;0;2510;0;0;0;0;5;0;628;2;0;0;0;0;0;6;0;278;2;0;0;0;0;0;7;0;9040;0;0;0;0;8;0;9656;0;0;0;0;9;0;4853;0;0;0;0
27.01.19;22:05:00;1;385;13239;0;2;0;1827;0;0;0;0;3;0;3960;0;0;0;0;4;0;2510;0;0;0;0;5;0;628;2;0;0;0;0;0;6;0;278;2;0;0;0;0;0;7;0;9040;0;0;0;0;8;0;9656;0;0;0;0;9;0;4853;0;0;0;0
27.01.19;22:00:00;1;786;13207;0;2;0;1827;0;0;0;0;3;0;3960;0;0;0;0;4;0;2510;0;0;0;0;5;0;628;2;0;0;0;0;0;6;0;278;2;0;0;0;0;0;7;0;9040;0;0;0;0;8;0;9656;0;0;0;0;9;0;4853;0;0;0;0
27.01.19;21:55:00;1;367;13151;0;2;0;1827;0;0;0;0;3;0;3960;0;0;0;0;4;0;2510;0;0;0;0;5;0;628;2;0;0;0;0;0;6;0;278;2;0;0;0;0;0;7;0;9040;0;0;0;0;8;0;9656;0;0;0;0;9;0;4853;0;0;0;0
27.01.19;21:50:00;1;376;13120;0;2;0;1827;0;0;0;0;3;0;3960;0;0;0;0;4;0;2510;0;0;0;0;5;0;628;2;0;0;0;0;0;6;0;278;2;0;0;0;0;0;7;0;9040;0;0;0;0;8;0;9656;0;0;0;0;9;0;4853;0;0;0;0
27.01.19;21:45:00;1;725;13088;0;2;0;1827;0;0;0;0;3;0;3960;0;0;0;0;4;0;2510;0;0;0;0;5;0;628;2;0;0;0;0;0;6;0;278;2;0;0;0;0;0;7;0;9040;0;0;0;0;8;0;9656;0;0;0;0;9;0;4853;0;0;0;0
27.01.19;21:40:00;1;365;13033;0;2;0;1827;0;0;0;0;3;0;3960;0;0;0;0;4;0;2510;0;0;0;0;5;0;628;2;0;0;0;0;0;6;0;278;2;0;0;0;0;0;7;0;9040;0;0;0;0;8;0;9656;0;0;0;0;9;0;4853;0;0;0;0
27.01.19;21:35:00;1;445;13003;0;2;0;1827;0;0;0;0;3;0;3960;0;0;0;0;4;0;2510;0;0;0;0;5;0;628;2;0;0;0;0;0;6;0;278;2;0;0;0;0;0;7;0;9040;0;0;0;0;8;0;9656;0;0;0;0;9;0;4853;0;0;0;0
27.01.19;21:30:00;1;697;12947;0;2;0;1827;0;0;0;0;3;0;3960;0;0;0;0;4;0;2510;0;0;0;0;5;0;628;2;0;0;0;0;0;6;0;278;2;0;0;0;0;0;7;0;9040;0;0;0;0;8;0;9656;0;0;0;0;9;0;4853;0;0;0;0
27.01.19;21:25:00;1;473;12900;0;2;0;1827;0;0;0;0;3;0;3960;0;0;0;0;4;0;2510;0;0;0;0;5;0;628;2;0;0;0;0;0;6;0;278;2;0;0;0;0;0;7;0;9040;0;0;0;0;8;0;9656;0;0;0;0;9;0;4853;0;0;0;0
27.01.19;21:20:00;1;651;12860;0;2;0;1827;0;0;0;0;3;0;3960;0;0;0;0;4;0;2510;0;0;0;0;5;0;628;2;0;0;0;0;0;6;0;278;2;0;0;0;0;0;7;0;9040;0;0;0;0;8;0;9656;0;0;0;0;9;0;4853;0;0;0;0
27.01.19;21:15:00;1;448;12797;0;2;0;1827;0;0;0;0;3;0;3960;0;0;0;0;4;0;2510;0;0;0;0;5;0;628;2;0;0;0;0;0;6;0;278;2;0;0;0;0;0;7;0;9040;0;0;0;0;8;0;9656;0;0;0;0;9;0;4853;0;0;0;0
27.01.19;21:10:00;1;451;12759;0;2;0;1827;0;0;0;0;3;0;3960;0;0;0;0;4;0;2510;0;0;0;0;5;0;628;2;0;0;0;0;0;6;0;278;2;0;0;0;0;0;7;0;9040;0;0;0;0;8;0;9656;0;0;0;0;9;0;4853;0;0;0;0
27.01.19;21:05:00;1;651;12721;0;2;0;1827;0;0;0;0;3;0;3960;0;0;0;0;4;0;2510;0;0;0;0;5;0;628;2;0;0;0;0;0;6;0;278;2;0;0;0;0;0;7;0;9040;0;0;0;0;8;0;9656;0;0;0;0;9;0;4853;0;0;0;0
27.01.19;21:00:00;1;445;12658;0;2;0;1827;0;0;0;0;3;0;3960;0;0;0;0;4;0;2510;0;0;0;0;5;0;628;2;0;0;0;0;0;6;0;278;2;0;0;0;0;0;7;0;9040;0;0;0;0;8;0;9656;0;0;0;0;9;0;4853;0;0;0;0
27.01.19;20:55:00;1;398;12622;0;2;0;1827;0;0;0;0;3;0;3960;0;0;0;0;4;0;2510;0;0;0;0;5;0;628;2;0;0;0;0;0;6;0;278;2;0;0;0;0;0;7;0;9040;0;0;0;0;8;0;9656;0;0;0;0;9;0;4853;0;0;0;0
27.01.19;20:50:00;1;1440;12589;0;2;0;1827;0;0;0;0;3;0;3960;0;0;0;0;4;0;2510;0;0;0;0;5;0;628;2;0;0;0;0;0;6;0;278;2;0;0;0;0;0;7;0;9040;0;0;0;0;8;0;9656;0;0;0;0;9;0;4853;0;0;0;0
27.01.19;20:45:00;1;1295;12399;0;2;0;1827;0;0;0;0;3;0;3960;0;0;0;0;4;0;2510;0;0;0;0;5;0;628;2;0;0;0;0;0;6;0;278;2;0;0;0;0;0;7;0;9040;0;0;0;0;8;0;9656;0;0;0;0;9;0;4853;0;0;0;0
27.01.19;20:40:00;1;428;12276;0;2;0;1827;0;0;0;0;3;0;3960;0;0;0;0;4;0;2510;0;0;0;0;5;0;628;2;0;0;0;0;0;6;0;278;2;0;0;0;0;0;7;0;9040;0;0;0;0;8;0;9656;0;0;0;0;9;0;4853;0;0;0;0
27.01.19;20:35:00;1;804;12240;0;2;0;1827;0;0;0;0;3;0;3960;0;0;0;0;4;0;2510;0;0;0;0;5;0;628;2;0;0;0;0;0;6;0;278;2;0;0;0;0;0;7;0;9040;0;0;0;0;8;0;9656;0;0;0;0;9;0;4853;0;0;0;0
27.01.19;20:30:00;1;448;12179;0;2;0;1827;0;0;0;0;3;0;3960;0;0;0;0;4;0;2510;0;0;0;0;5;0;628;2;0;0;0;0;0;6;0;278;2;0;0;0;0;0;7;0;9040;0;0;0;0;8;0;9656;0;0;0;0;9;0;4853;0;0;0;0
27.01.19;20:25:00;1;434;12141;0;2;0;1827;0;0;0;0;3;0;3960;0;0;0;0;4;0;2510;0;0;0;0;5;0;628;2;0;0;0;0;0;6;0;278;2;0;0;0;0;0;7;0;9040;0;0;0;0;8;0;9656;0;0;0;0;9;0;4853;0;0;0;0
27.01.19;20:20:00;1;603;12105;0;2;0;1827;0;0;0;0;3;0;3960;0;0;0;0;4;0;2510;0;0;0;0;5;0;628;2;0;0;0;0;0;6;0;278;2;0;0;0;0;0;7;0;9040;0;0;0;0;8;0;9656;0;0;0;0;9;0;4853;0;0;0;0
27.01.19;20:15:00;1;570;12046;0;2;0;1827;0;0;0;0;3;0;3960;0;0;0;0;4;0;2510;0;0;0;0;5;0;628;2;0;0;0;0;0;6;0;278;2;0;0;0;0;0;7;0;9040;0;0;0;0;8;0;9656;0;0;0;0;9;0;4853;0;0;0;0
27.01.19;20:10:00;1;1002;11985;0;2;0;1827;0;0;0;0;3;0;3960;0;0;0;0;4;0;2510;0;0;0;0;5;0;628;2;0;0;0;0;0;6;0;278;2;0;0;0;0;0;7;0;9040;0;0;0;0;8;0;9656;0;0;0;0;9;0;4853;0;0;0;0
27.01.19;20:05:00;1;815;11920;0;2;0;1827;0;0;0;0;3;0;3960;0;0;0;0;4;0;2510;0;0;0;0;5;0;628;2;0;0;0;0;0;6;0;278;2;0;0;0;0;0;7;0;9040;0;0;0;0;8;0;9656;0;0;0;0;9;0;4853;0;0;0;0
27.01.19;20:00:00;1;413;11860;0;2;0;1827;0;0;0;0;3;0;3960;0;0;0;0;4;0;2510;0;0;0;0;5;0;628;2;0;0;0;0;0;6;0;278;2;0;0;0;0;0;7;0;9040;0;0;0;0;8;0;9656;0;0;0;0;9;0;4853;0;0;0;0
27.01.19;19:55:00;1;1305;11826;0;2;0;1827;0;0;0;0;3;0;3960;0;0;0;0;4;0;2510;0;0;0;0;5;0;628;2;0;0;0;0;0;6;0;278;2;0;0;0;0;0;7;0;9040;0;0;0;0;8;0;9656;0;0;0;0;9;0;4853;0;0;0;0
27.01.19;19:50:00;1;1906;11706;0;2;0;1827;0;0;0;0;3;0;3960;0;0;0;0;4;0;2510;0;0;0;0;5;0;628;2;0;0;0;0;0;6;0;278;2;0;0;0;0;0;7;0;9040;0;0;0;0;8;0;9656;0;0;0;0;9;0;4853;0;0;0;0
27.01.19;19:45:00;1;2292;11533;0;2;0;1827;0;0;0;0;3;0;3960;0;0;0;0;4;0;2510;0;0;0;0;5;0;628;2;0;0;0;0;0;6;0;278;2;0;0;0;0;0;7;0;9040;0;0;0;0;8;0;9656;0;0;0;0;9;0;4853;0;0;0;0
27.01.19;19:40:00;1;2320;11340;0;2;0;1827;0;0;0;0;3;0;3960;0;0;0;0;4;0;2510;0;0;0;0;5;0;628;2;0;0;0;0;0;6;0;278;2;0;0;0;0;0;7;0;9040;0;0;0;0;8;0;9656;0;0;0;0;9;0;4853;0;0;0;0
27.01.19;19:35:00;1;2187;11145;0;2;0;1827;0;0;0;0;3;0;3960;0;0;0;0;4;0;2510;0;0;0;0;5;0;628;2;0;0;0;0;0;6;0;278;2;0;0;0;0;0;7;0;9040;0;0;0;0;8;0;9656;0;0;0;0;9;0;4853;0;0;0;0
27.01.19;19:30:00;1;1922;11005;0;2;0;1827;0;0;0;0;3;0;3960;0;0;0;0;4;0;2510;0;0;0;0;5;0;628;2;0;0;0;0;0;6;0;278;2;0;0;0;0;0;7;0;9040;0;0;0;0;8;0;9656;0;0;0;0;9;0;4853;0;0;0;0
27.01.19;19:25:00;1;602;10853;0;2;0;1827;0;0;0;0;3;0;3960;0;0;0;0;4;0;2510;0;0;0;0;5;0;628;2;0;0;0;0;0;6;0;278;2;0;0;0;0;0;7;0;9040;0;0;0;0;8;0;9656;0;0;0;0;9;0;4853;0;0;0;0
27.01.19;19:20:00;1;1095;10802;0;2;0;1827;0;0;0;0;3;0;3960;0;0;0;0;4;0;2510;0;0;0;0;5;0;628;2;0;0;0;0;0;6;0;278;2;0;0;0;0;0;7;0;9040;0;0;0;0;8;0;9656;0;0;0;0;9;0;4853;0;0;0;0
27.01.19;19:15:00;1;1937;10718;0;2;0;1827;0;0;0;0;3;0;3960;0;0;0;0;4;0;2510;0;0;0;0;5;0;628;2;0;0;0;0;0;6;0;278;2;0;0;0;0;0;7;0;9040;0;0;0;0;8;0;9656;0;0;0;0;9;0;4853;0;0;0;0
27.01.19;19:10:00;1;1576;10547;0;2;0;1827;0;0;0;0;3;0;3960;0;0;0;0;4;0;2510;0;0;0;0;5;0;628;2;0;0;0;0;0;6;0;278;2;0;0;0;0;0;7;0;9040;0;0;0;0;8;0;9656;0;0;0;0;9;0;4853;0;0;0;0
27.01.19;19:05:00;1;1468;10420;0;2;0;1827;0;0;0;0;3;0;3960;0;0;0;0;4;0;2510;0;0;0;0;5;0;628;2;0;0;0;0;0;6;0;278;2;0;0;0;0;0;7;0;9040;0;0;0;0;8;0;9656;0;0;0;0;9;0;4853;0;0;0;0
27.01.19;19:00:00;1;2642;10274;0;2;0;1827;0;0;0;0;3;0;3960;0;0;0;0;4;0;2510;0;0;0;0;5;0;628;2;0;0;0;0;0;6;0;278;2;0;0;0;0;0;7;0;9040;0;0;0;0;8;0;9656;0;0;0;0;9;0;4853;0;0;0;0
27.01.19;18:55:00;1;1198;10050;0;2;0;1827;0;0;0;0;3;0;3960;0;0;0;0;4;0;2510;0;0;0;0;5;0;628;2;0;0;0;0;0;6;0;278;2;0;0;0;0;0;7;0;9040;0;0;0;0;8;0;9656;0;0;0;0;9;0;4853;0;0;0;0
27.01.19;18:50:00;1;2155;9962;0;2;0;1827;0;0;0;0;3;0;3960;0;0;0;0;4;0;2510;0;0;0;0;5;0;628;2;0;0;0;0;0;6;0;278;2;0;0;0;0;0;7;0;9040;0;0;0;0;8;0;9656;0;0;0;0;9;0;4853;0;0;0;0
27.01.19;18:45:00;1;2603;9772;0;2;0;1827;0;0;0;0;3;0;3960;0;0;0;0;4;0;2510;0;0;0;0;5;0;628;2;0;0;0;0;0;6;0;278;2;0;0;0;0;0;7;0;9040;0;0;0;0;8;0;9656;0;0;0;0;9;0;4853;0;0;0;0
27.01.19;18:40:00;1;2085;9554;0;2;0;1827;0;0;0;0;3;0;3960;0;0;0;0;4;0;2510;0;0;0;0;5;0;628;2;0;0;0;0;0;6;0;278;2;0;0;0;0;0;7;0;9040;0;0;0;0;8;0;9656;0;0;0;0;9;0;4853;0;0;0;0
27.01.19;18:35:00;1;1047;9426;0;2;0;1827;0;0;0;0;3;0;3960;0;0;0;0;4;0;2510;0;0;0;0;5;0;628;2;0;0;0;0;0;6;0;278;2;0;0;0;0;0;7;0;9040;0;0;0;0;8;0;9656;0;0;0;0;9;0;4853;0;0;0;0
27.01.19;18:30:00;1;575;9346;0;2;0;1827;0;0;0;0;3;0;3960;0;0;0;0;4;0;2510;0;0;0;0;5;0;628;2;0;0;0;0;0;6;0;278;2;0;0;0;0;0;7;0;9040;0;0;0;0;8;0;9656;0;0;0;0;9;0;4853;0;0;0;0
27.01.19;18:25:00;1;542;9298;0;2;0;1827;0;0;0;0;3;0;3960;0;0;0;0;4;0;2510;0;0;0;0;5;0;628;2;0;0;0;0;0;6;0;278;2;0;0;0;0;0;7;0;9040;0;0;0;0;8;0;9656;0;0;0;0;9;0;4853;0;0;0;0
27.01.19;18:20:00;1;942;9252;0;2;0;1827;0;0;0;0;3;0;3960;0;0;0;0;4;0;2510;0;0;0;0;5;0;628;2;0;0;0;0;0;6;0;278;2;0;0;0;0;0;7;0;9040;0;0;0;0;8;0;9656;0;0;0;0;9;0;4853;0;0;0;0
27.01.19;18:15:00;1;514;9183;0;2;0;1827;0;0;0;0;3;0;3960;0;0;0;0;4;0;2510;0;0;0;0;5;0;628;2;0;0;0;0;0;6;0;278;2;0;0;0;0;0;7;0;9040;0;0;0;0;8;0;9656;0;0;0;0;9;0;4853;0;0;0;0
27.01.19;18:10:00;1;501;9141;0;2;0;1827;0;0;0;0;3;0;3960;0;0;0;0;4;0;2510;0;0;0;0;5;0;628;2;0;0;0;0;0;6;0;278;2;0;0;0;0;0;7;0;9040;0;0;0;0;8;0;9656;0;0;0;0;9;0;4853;0;0;0;0
27.01.19;18:05:00;1;927;9098;0;2;0;1827;0;0;0;0;3;0;3960;0;0;0;0;4;0;2510;0;0;0;0;5;0;628;2;0;0;0;0;0;6;0;278;2;0;0;0;0;0;7;0;9040;0;0;0;0;8;0;9656;0;0;0;0;9;0;4853;0;0;0;0
27.01.19;18:00:00;1;1627;9021;0;2;0;1827;0;0;0;0;3;0;3960;0;0;0;0;4;0;2510;0;0;0;0;5;0;628;2;0;0;0;0;0;6;0;278;2;0;0;0;0;0;7;0;9040;0;0;0;0;8;0;9656;0;0;0;0;9;0;4853;0;0;0;0
27.01.19;17:55:00;1;688;8910;0;2;0;1827;0;0;0;0;3;0;3960;0;0;0;0;4;0;2510;0;0;0;0;5;0;628;2;0;0;0;0;0;6;0;278;2;0;0;0;0;0;7;0;9040;0;0;0;0;8;0;9656;0;0;0;0;9;0;4853;0;0;0;0
27.01.19;17:50:00;1;930;8859;0;2;0;1827;0;0;0;0;3;0;3960;0;0;0;0;4;0;2510;0;0;0;0;5;0;628;2;0;0;0;0;0;6;0;278;2;0;0;0;0;0;7;0;9040;0;0;0;0;8;0;9656;0;0;0;0;9;0;4853;0;0;0;0
27.01.19;17:45:00;1;511;8791;0;2;0;1827;0;0;0;0;3;0;3960;0;0;0;0;4;0;2510;0;0;0;0;5;0;628;2;0;0;0;0;0;6;0;278;2;0;0;0;0;0;7;0;9040;0;0;0;0;8;0;9656;0;0;0;0;9;0;4853;0;0;0;0
27.01.19;17:40:00;1;525;8748;0;2;0;1827;0;0;0;0;3;0;3960;0;0;0;0;4;0;2510;0;0;0;0;5;0;628;2;0;0;0;0;0;6;0;278;2;0;0;0;0;0;7;0;9040;0;0;0;0;8;0;9656;0;0;0;0;9;0;4853;0;0;0;0
27.01.19;17:35:00;1;951;8703;0;2;0;1827;0;0;0;0;3;0;3960;0;0;0;0;4;0;2510;0;0;0;0;5;0;628;2;0;0;0;0;0;6;0;278;2;0;0;0;0;0;7;0;9040;0;0;0;0;8;0;9656;0;0;0;0;9;0;4853;0;0;0;0
27.01.19;17:30:00;1;734;8592;0;2;0;1827;0;0;0;0;3;0;3960;0;0;0;0;4;0;2510;0;0;0;0;5;0;628;2;0;0;0;0;0;6;0;278;2;0;0;0;0;0;7;0;9040;0;0;0;0;8;0;9656;0;0;0;0;9;0;4853;0;0;0;0
27.01.19;17:25:00;1;698;8531;0;2;0;1827;0;0;0;0;3;0;3960;0;0;0;0;4;0;2510;0;0;0;0;5;0;628;2;0;0;0;0;0;6;0;278;2;0;0;0;0;0;7;0;9040;0;0;0;0;8;0;9656;0;0;0;0;9;0;4853;0;0;0;0
27.01.19;17:20:00;1;889;8473;0;2;0;1827;0;0;0;0;3;0;3960;0;0;0;0;4;0;2510;0;0;0;0;5;0;628;2;0;0;0;0;0;6;0;278;2;0;0;0;0;0;7;0;9040;0;0;0;0;8;0;9656;0;0;0;0;9;0;4853;0;0;0;0
27.01.19;17:15:00;1;682;8391;0;2;0;1827;0;0;148;3;3;0;3960;6;0;286;11;4;0;2510;0;0;0;0;5;0;628;2;0;0;0;0;0;6;0;278;2;0;0;0;0;0;7;0;9040;0;0;0;0;8;0;9656;0;0;0;0;9;0;4853;0;0;0;0
27.01.19;17:10:00;1;691;8334;0;2;0;1827;6;0;294;7;3;0;3960;6;0;349;11;4;0;2510;2;0;76;7;5;0;628;2;0;0;0;0;0;6;0;278;2;0;0;0;0;0;7;0;9040;0;0;0;0;8;0;9656;0;0;0;0;9;0;4853;0;0;0;0
27.01.19;17:05:00;1;1171;8276;0;2;0;1827;6;0;330;7;3;0;3960;6;1;401;11;4;0;2510;1;0;114;7;5;0;628;2;0;0;0;0;0;6;0;278;2;0;0;0;0;0;7;0;9040;0;0;85;4;8;0;9656;0;0;86;3;9;0;4853;0;0;180;5
27.01.19;17:00:00;1;669;8194;0;2;0;1827;6;0;355;7;3;0;3960;6;0;458;11;4;0;2510;1;0;146;8;5;0;628;2;0;0;0;0;0;6;0;278;2;0;0;0;0;1;7;0;9040;6;0;293;12;8;0;9656;6;0;298;12;9;0;4853;6;0;314;9
27.01.19;16:55:00;1;630;8139;0;2;0;1827;6;0;376;7;3;0;3960;4;4;442;11;4;0;2510;1;0;179;8;5;0;628;2;0;0;0;0;0;6;0;278;0;0;0;0;0;0;7;0;9040;6;0;350;12;8;0;9656;6;0;357;12;9;0;4853;6;0;381;9
27.01.19;16:50:00;1;1416;8077;0;2;0;1827;6;0;395;7;3;2;3960;3;9;460;11;4;0;2510;1;0;194;8;5;0;628;2;0;0;0;0;0;6;0;278;2;7;0;259;143;11;7;0;9040;6;1;397;13;8;0;9656;6;0;401;12;9;0;4853;6;0;424;9
27.01.19;16:45:00;1;1804;7926;0;2;0;1827;6;0;411;7;3;2;3960;6;5;510;11;4;0;2510;3;0;225;9;5;0;628;2;0;0;11;10;2;6;0;278;23;10;0;220;189;14;7;1;9040;6;4;427;13;8;1;9656;6;1;451;12;9;0;4853;6;1;494;9
27.01.19;16:40:00;1;2164;7781;0;2;3;1827;4;4;403;7;3;0;3960;6;6;509;12;4;0;2510;3;0;225;9;5;0;628;2;0;5;58;57;6;6;0;278;23;7;1;477;209;14;7;0;9040;6;5;455;13;8;2;9656;6;5;457;13;9;0;4853;6;0;525;9
27.01.19;16:35:00;1;2694;7610;0;2;3;1827;3;10;401;7;3;1;3960;6;6;524;12;4;0;2510;3;0;200;9;5;0;628;1;0;0;181;179;13;6;0;278;23;10;0;268;282;14;7;1;9040;6;4;470;13;8;0;9656;6;4;472;13;9;2;4853;3;8;497;10
27.01.19;16:30:00;1;3892;7384;0;2;7;1826;6;17;399;8;3;3;3960;6;10;529;12;4;6;2510;3;6;200;9;5;0;628;26;0;0;293;291;16;6;0;278;23;8;0;398;325;15;7;6;9040;4;9;480;14;8;3;9656;3;9;481;13;9;3;4853;6;12;496;10
27.01.19;16:25:00;1;2017;7076;0;2;3;1826;6;8;421;8;3;3;3959;4;9;521;12;4;10;2510;3;10;199;9;5;0;628;26;0;0;358;368;17;6;0;278;23;11;0;314;439;15;7;11;9039;6;20;461;14;8;11;9655;6;21;460;14;9;2;4852;6;6;542;10
27.01.19;16:20:00;1;906;6894;0;2;28;1826;6;44;387;8;3;17;3959;3;31;522;12;4;33;2509;3;34;198;9;5;0;628;23;0;0;421;458;17;6;0;278;23;13;0;259;510;15;7;68;9038;4;92;427;14;8;56;9654;4;94;420;14;9;5;4852;6;10;548;10
27.01.19;16:15:00;1;823;6818;0;2;99;1823;4;126;354;8;3;92;3957;4;127;499;13;4;97;2506;3;100;203;9;5;0;628;23;0;0;445;636;17;6;3;278;23;15;2;486;554;15;7;155;9032;4;187;452;14;8;141;9650;4;181;460;14;9;69;4852;6;96;519;11
27.01.19;16:10:00;1;771;6751;0;2;161;1815;4;190;354;9;3;159;3950;4;198;502;13;4;174;2498;5;182;212;9;5;9;628;4;1;1;442;702;17;6;8;278;4;17;7;405;335;15;7;284;9020;4;320;455;14;8;278;9638;4;320;466;14;9;149;4847;4;179;526;11
27.01.19;16:05:00;1;939;6687;0;2;218;1802;4;248;355;9;3;217;3936;4;258;503;13;4;236;2484;5;246;215;10;5;8;627;4;2;2;449;716;17;6;0;277;23;10;0;182;632;15;7;393;8996;4;437;483;14;8;396;9615;4;441;478;14;9;213;4834;4;247;521;11
27.01.19;16:00:00;1;693;6604;0;2;198;1784;4;227;353;9;3;196;3918;4;240;505;13;4;209;2464;5;217;212;10;5;10;626;4;3;2;444;712;17;6;0;277;23;11;0;182;628;15;7;369;8964;4;412;478;15;8;375;9582;4;418;485;14;9;203;4817;4;239;523;12
27.01.19;15:55:00;1;431;6546;0;2;195;1767;4;224;351;9;3;190;3902;4;231;468;13;4;205;2447;5;213;206;10;5;7;625;4;1;3;445;701;17;6;0;277;23;10;0;246;627;15;7;335;8933;4;377;484;15;8;333;9551;4;377;477;14;9;182;4799;4;216;522;12
27.01.19;15:50:00;1;555;6513;0;2;258;1751;4;288;354;9;3;259;3886;4;300;488;13;4;274;2430;5;285;210;10;5;11;624;4;2;2;448;718;18;6;0;277;23;11;0;485;633;16;7;469;8905;4;510;485;15;8;466;9523;4;509;465;14;9;248;4784;4;289;529;12
27.01.19;15:45:00;1;220;6469;0;2;299;1730;4;335;354;9;3;307;3865;4;353;485;13;4;322;2407;5;335;215;10;5;21;623;4;5;5;445;715;18;6;0;277;8;8;0;428;638;16;7;596;8867;4;660;484;15;8;610;9484;4;659;489;14;9;326;4764;4;370;536;12
27.01.19;15:40:00;1;245;6450;0;2;299;1705;4;331;355;9;3;311;3839;4;359;490;13;4;328;2380;5;341;214;10;5;57;621;1;16;17;411;657;18;6;0;277;23;13;0;508;639;16;7;619;8817;4;664;493;15;8;613;9434;4;667;486;15;9;326;4737;4;371;539;12
27.01.19;15:35:00;1;495;6430;0;2;305;1680;4;338;355;9;3;326;3814;4;374;487;14;4;338;2353;5;352;215;10;5;22;616;26;5;3;442;708;18;6;0;277;23;7;0;475;639;16;7;668;8766;4;711;491;15;8;666;9383;4;717;484;15;9;358;4710;4;402;532;12
27.01.19;15:30:00;1;290;6383;0;2;318;1654;4;352;353;9;3;345;3786;4;396;492;14;4;355;2325;5;370;215;10;5;75;614;4;19;17;395;631;19;6;0;277;23;11;0;520;640;16;7;670;8710;4;717;487;15;8;670;9327;4;717;483;15;9;354;4679;4;400;537;12
27.01.19;15:25:00;1;295;6358;0;2;293;1628;4;324;354;9;3;323;3758;4;371;491;14;4;336;2295;5;351;215;10;5;69;608;4;17;19;395;631;18;6;0;277;8;8;0;505;638;16;7;632;8654;4;679;489;15;8;633;9272;4;690;483;15;9;340;4650;4;385;529;12
27.01.19;15:20:00;1;565;6334;0;2;279;1604;4;310;371;9;3;322;3731;4;369;502;14;4;335;2267;5;349;211;10;5;11;602;4;3;9;455;732;18;6;0;277;23;18;0;510;638;17;7;617;8601;4;662;482;15;8;614;9219;4;664;475;15;9;331;4622;4;372;534;12
27.01.19;15:15:00;1;286;6285;0;2;231;1580;4;263;355;9;3;265;3704;4;313;529;14;4;269;2239;5;280;210;10;5;20;601;4;6;5;440;707;18;6;0;277;23;10;0;529;632;17;7;507;8550;4;544;475;15;8;499;9168;4;548;463;15;9;269;4594;4;309;529;13
27.01.19;15:10:00;1;286;6261;0;2;270;1561;4;302;369;9;3;321;3682;4;374;534;14;4;331;2217;5;345;211;10;5;71;600;4;18;15;397;638;19;6;0;277;8;8;0;505;637;17;7;587;8507;4;652;488;16;8;600;9126;4;657;484;15;9;320;4571;4;365;534;13
27.01.19;15:05:00;1;626;6237;0;2;296;1538;4;330;371;9;3;364;3655;4;414;525;14;4;370;2189;5;385;208;10;5;79;594;4;23;23;397;638;19;6;0;277;8;10;0;469;639;17;7;701;8460;4;760;480;16;8;708;9077;4;761;490;15;9;379;4545;4;426;528;13
27.01.19;15:00:00;1;295;6189;0;2;301;1514;4;333;359;9;3;372;3625;4;426;521;14;4;378;2159;5;394;210;10;5;80;587;4;23;22;397;638;19;6;0;277;8;10;0;436;641;18;7;735;8401;4;796;475;16;8;749;9017;4;805;486;15;9;402;4514;4;446;529;13
27.01.19;14:55:00;1;222;6164;0;2;310;1489;4;344;354;9;3;383;3594;4;435;512;14;4;388;2127;5;404;210;10;5;81;580;4;23;23;397;638;19;6;8;277;8;13;3;585;613;18;7;758;8339;4;816;489;16;8;765;8954;4;819;483;16;9;412;4480;4;459;530;13
27.01.19;14:50:00;1;505;6137;0;2;307;1463;4;342;356;9;3;391;3562;4;442;510;14;4;398;2095;5;415;209;10;5;82;573;4;25;23;397;638;19;6;57;276;4;37;26;490;480;19;7;793;8276;4;832;481;16;8;775;8891;4;833;489;16;9;421;4446;4;468;534;13
27.01.19;14:45:00;1;222;6102;0;2;343;1437;4;376;354;9;3;429;3529;4;485;511;14;4;426;2061;5;444;209;10;5;89;567;4;27;26;397;638;19;6;56;272;4;25;19;490;480;19;7;839;8210;4;909;482;16;8;846;8826;4;900;476;16;9;454;4411;4;504;526;14
27.01.19;14:40:00;1;308;6083;0;2;425;1409;4;462;353;9;3;523;3494;4;583;522;14;4;512;2026;5;534;207;11;5;100;559;4;36;33;397;638;19;6;68;267;4;43;33;490;480;19;7;1063;8141;4;1128;481;16;8;1055;8756;4;1120;481;16;9;570;4373;4;624;539;14
27.01.19;14:35:00;1;502;6043;0;2;502;1374;4;545;355;9;3;625;3450;4;687;522;14;4;609;1984;5;635;204;11;5;114;551;4;47;40;397;638;19;6;81;261;4;61;56;490;480;19;7;1347;8053;4;1414;495;16;8;1331;8669;4;1402;490;16;9;715;4326;4;778;542;14
27.01.19;14:30:00;1;265;6017;0;2;752;1332;4;802;353;10;3;893;3399;4;963;489;14;4;777;1933;5;810;207;10;5;141;541;4;59;52;397;638;19;6;92;254;4;35;36;490;480;19;7;1796;7942;4;1889;492;16;8;1750;8559;4;1836;485;16;9;933;4267;4;1003;526;14
27.01.19;14:25:00;1;485;5995;0;2;926;1270;4;978;355;9;3;1115;3324;4;1194;488;14;4;943;1869;5;982;208;10;5;179;528;4;79;65;397;638;19;6;120;246;4;54;54;490;480;18;7;2562;7792;4;2688;500;16;8;2547;8413;4;2666;483;16;9;1425;4189;4;1521;546;14
27.01.19;14:20:00;1;223;5950;0;2;766;1188;4;810;355;9;3;952;3226;4;1024;494;14;4;892;1788;5;929;209;10;5;156;514;4;66;60;397;638;19;6;105;236;4;52;51;490;480;18;7;2019;7571;4;2121;503;16;8;2022;8195;4;2123;497;15;9;1115;4068;4;1194;537;14
27.01.19;14:15:00;1;222;5932;0;2;488;1125;4;522;359;9;3;637;3148;4;698;480;14;4;601;1714;5;626;208;10;5;113;501;4;43;40;397;638;19;6;77;227;4;50;47;490;480;18;7;1558;7403;4;1642;485;16;8;1565;8029;4;1640;488;15;9;808;3975;4;877;549;13
27.01.19;14:10:00;1;222;5913;0;2;434;1083;4;467;354;9;3;546;3093;4;600;466;14;4;532;1662;5;554;207;10;5;100;492;4;37;30;397;638;19;6;68;221;4;46;39;490;480;18;7;1209;7266;4;1269;488;16;8;1184;7890;4;1255;483;15;9;637;3905;4;698;542;13
27.01.19;14:05:00;1;222;5869;0;2;550;1047;4;586;355;9;3;699;3047;4;755;469;14;4;677;1618;5;705;210;10;5;120;484;4;53;43;397;638;19;6;81;215;4;51;43;490;480;18;7;1520;7165;4;1610;493;16;8;1523;7791;4;1601;489;15;9;822;3851;4;889;544;14
27.01.19;14:00:00;1;224;5851;0;2;545;1001;4;578;351;9;3;694;2989;4;750;448;14;4;671;1562;5;699;210;10;5;125;473;4;53;42;397;638;19;6;82;208;4;54;42;490;480;18;7;1618;7039;4;1708;498;16;8;1619;7665;4;1706;492;15;9;887;3783;4;956;544;13
27.01.19;13:55:00;1;459;5832;0;2;441;955;4;476;356;9;3;592;2931;4;646;440;14;4;572;1506;5;596;207;9;5;110;463;4;41;37;397;638;19;6;71;202;4;31;26;490;480;17;7;1321;6904;4;1388;496;15;8;1309;7530;4;1382;495;15;9;704;3710;4;769;548;13
27.01.19;13:50:00;1;223;5790;0;2;406;919;4;436;353;9;3;553;2882;4;606;438;14;4;528;1459;5;550;204;9;5;98;454;4;36;29;397;638;19;6;67;196;4;63;50;489;480;17;7;1220;6795;4;1288;489;15;8;1218;7421;4;1293;483;15;9;664;3651;4;721;542;13
27.01.19;13:45:00;1;223;5771;0;2;389;884;4;420;356;8;3;547;2835;4;599;440;13;4;524;1414;5;546;200;9;5;101;446;4;37;33;397;638;19;6;35;190;4;24;17;482;572;16;7;1202;6691;4;1275;487;16;8;1184;7318;4;1281;487;15;9;654;3595;4;717;548;13